Regional Weather Roundup
Issued by NWS

Home | Current Version | Previous Version | Text Only | Print | Product List | Glossary Off
Versions: 1 2 3 4 5 6 7 8 9 10 11 12 13 14 15 16 17 18 19 20 21 22 23 24 25 26 27 28 29 30 31 32 33 34 35 36 37 38 39 40 41 42 43 44 45 46 47 48 49 50

000
ASUS43 KDMX 191006
RWRIA

WEATHER ROUNDUP FOR IOWA
NATIONAL WEATHER SERVICE DES MOINES IA
400 AM CST FRI JAN 19 2018

NOTE: "FAIR" INDICATES FEW OR NO CLOUDS BELOW 12,000 FEET WITH NO
SIGNIFICANT WEATHER AND/OR OBSTRUCTIONS TO VISIBILITY.

* - THESE STATIONS ARE NOT NWS STATIONS...THUS NOT UNDER NWS
QUALITY CONTROL.  THEY ALSO DO NOT REPORT WEATHER SUCH
AS PRECIPITATION OR FOG.

IAZ001>003-012>014-020>022-031>034-043>046-191100-
   NORTHWEST IOWA

CITY           SKY/WX    TMP DP  RH WIND       PRES   REMARKS
CARROLL *      CLOUDY    32  25  74 SW15G21   29.76F WCI  22
CHEROKEE *     PTCLDY    24  23  94 S5        29.73F WCI  18
DENISON *      CLOUDY    30  23  74 S6        29.79F WCI  24
LE MARS *      CLOUDY    27  25  93 S7        29.72F WCI  19
ORANGE CITY *  CLOUDY    27  25  93 S7        29.70F WCI  19
SHELDON *      CLOUDY    27  25  93 SE10      29.68F WCI  17
SIOUX CITY     CLOUDY    24  23  96 SE10      29.73F WCI  14
SPENCER        CLOUDY    27  23  85 SW9       29.72F WCI  18
STORM LAKE *   CLOUDY    28  25  86 SW13      29.74F WCI  18
$$

IAZ055>058-069>071-079>083-090>094-191100-
   SOUTHWEST IOWA

CITY           SKY/WX    TMP DP  RH WIND       PRES   REMARKS
ATLANTIC *     CLOUDY    32  25  74 S13       29.82F WCI  22
AUDUBON *      CLOUDY    30  25  80 S10       29.80F WCI  21
CLARINDA *     CLOUDY    28  25  86 S8          N/A  WCI  20
COUNCIL BLFS * CLOUDY    34  27  75 S14       29.80F WCI  24
CRESTON *      CLOUDY    32  25  74 SW14      29.85S WCI  22
HARLAN  *      CLOUDY    28  25  86 SW7       29.84F WCI  21
LAMONI         CLOUDY    31  21  66 S17       29.86F WCI  19
RED OAK *      CLOUDY    30  25  80 S7        29.84F WCI  23
SHENANDOAH *   CLOUDY    34  27  75 S10       29.85F WCI  26
$$

IAZ047>049-059>061-072>074-084-191100-
   CENTRAL IOWA

CITY           SKY/WX    TMP DP  RH WIND       PRES   REMARKS
AMES           CLOUDY    29  24  82 S8        29.81F WCI  21
ANKENY *       CLOUDY    32  23  69 S8        29.84S WCI  25
BOONE *        CLOUDY    30  23  74 SW9       29.78F WCI  22
CHARITON *     CLOUDY    30  21  69 SW13      29.85F WCI  20
DES MOINES     CLOUDY    32  23  69 SW7       29.82F WCI  26
GRINNELL*      CLOUDY    28  22  78 S10       29.85F WCI  18
KNOXVILLE *    CLOUDY    32  21  64 SW14      29.84S WCI  22
MARSHALLTOWN   CLOUDY    30  22  72 SW13      29.80F WCI  20
NEWTON *       CLOUDY    27  21  80 S9        29.84S WCI  17
PELLA *        CLOUDY    32  22  67 SW10G17   29.86F WCI  24
PERRY *          N/A     24  22  89 S7        29.80F WCI  16
$$

IAZ004>006-015-016-023>025-035-036-191100-
   NORTH CENTRAL IOWA

CITY           SKY/WX    TMP DP  RH WIND       PRES   REMARKS
ALGONA *       CLOUDY    25 N/A N/A S9        29.73F WCI  15
CLARION *      CLOUDY    21  21 100 S9        29.77F WCI  11
ESTHERVILLE    CLOUDY    29  25  85 SW13      29.70F WCI  19
FORT DODGE *   CLOUDY    25  21  85 S8        29.76F WCI  16
MASON CITY     CLOUDY    28  21  75 SW14      29.75F WCI  17
FOREST CITY *    N/A     27  23  86 SW5       29.74F WCI  21
WEBSTER CITY * CLOUDY    27  21  80 S7        29.77S WCI  19
IOWA FALLS *     N/A     26  22  82 SW6       29.80S WCI  20
$$

IAZ007>011-017>019-026>030-037>042-050>054-066-191100-
   NORTHEAST IOWA

CITY           SKY/WX    TMP DP  RH WIND       PRES   REMARKS
CHARLES CITY *   N/A     21  23 100 S9        29.78F WCI  11
CLINTON *        N/A     24  19  81 SW10      29.90F WCI  14
DECORAH *        N/A     27  21  80 SW8       29.77F WCI  18
DUBUQUE          N/A     24  18  77 S13       29.82F WCI  12
MONTICELLO *     N/A     25  19  80 S7        29.84F WCI  17
OELWEIN *        N/A     21  21 100 S9        29.82R WCI  11
WATERLOO         N/A     20  16  84 SE5       29.82R WCI  13
$$

IAZ064-065-067-068-078-191100-
   EAST CENTRAL IOWA

CITY           SKY/WX    TMP DP  RH WIND       PRES   REMARKS
DAVENPORT        N/A     31  20  63 S13       29.92F WCI  21
IOWA CITY        N/A     27  19  72 SE6       29.89F WCI  20
MT. PLEASANT * CLOUDY    30  21  69 SW13      29.93S WCI  20
MUSCATINE *      N/A     30  21  69 S10       29.92F WCI  21
QUAD CITIES      N/A     30  20  66 SW7       29.91F WCI  23
$$

IAZ062-063-075>077-085>089-095>099-191100-
   SOUTHEAST IOWA

CITY           SKY/WX    TMP DP  RH WIND       PRES   REMARKS
BURLINGTON     CLOUDY    30  20  66 SW13      29.94S WCI  20
FAIRFIELD *    CLOUDY    28  19  69 S9        29.90S WCI  20
FORT MADISON * CLOUDY    30  21  69 S12       29.95S WCI  21
KEOKUK *       CLOUDY    30  21  69 S14       29.95S WCI  20
OSKALOOSA *      N/A     30  22  73 SW10      29.87F WCI  21
OTTUMWA        CLOUDY    35  21  56 SW16      29.87F WCI  25
WASHINGTON *   CLOUDY    28  23  80 SW13      29.90F WCI  18
$$

ABBREVIATIONS USED IN REMARKS
   TC - TEMPERATURES IN CELSIUS
  WCI - WIND CHILL INDEX
   HX - HEAT INDEX
  VSB - VISIBILITY
$$




USA.gov is the U.S. government's official web portal to all federal, state and local government web resources and services.